Time,TemperatureF,DewpointF,PressureIn,WindDirection,WindDirectionDegrees,WindSpeedMPH,WindSpeedGustMPH,Humidity,HourlyPrecipIn,Conditions,Clouds,dailyrainin,SoftwareType,DateUTC
2013-02-13 00:02:00,29.0,26.0,29.50,NNW,346,0.0,0.0,90,0.00,,,0.01,,2013-02-13 05:02:00,
2013-02-13 00:12:00,29.0,26.0,29.50,NNW,346,0.0,0.0,90,0.00,,,0.01,,2013-02-13 05:12:00,
2013-02-13 00:22:00,29.0,26.0,29.50,NNW,346,0.0,0.0,90,0.00,,,0.01,,2013-02-13 05:22:00,
2013-02-13 00:32:00,29.0,27.0,29.50,NNW,346,0.0,0.0,92,0.00,,,0.01,,2013-02-13 05:32:00,
2013-02-13 00:42:00,29.0,27.0,29.50,NNW,346,0.0,0.0,92,0.00,,,0.01,,2013-02-13 05:42:00,
2013-02-13 00:52:00,28.0,26.0,29.50,NNW,346,0.0,0.0,92,0.00,,,0.01,,2013-02-13 05:52:00,
2013-02-13 01:02:00,28.0,26.0,29.50,NNW,346,0.0,0.0,93,0.00,,,0.01,,2013-02-13 06:02:00,
2013-02-13 01:11:00,28.0,27.0,29.50,NNW,346,0.0,0.0,94,0.00,,,0.01,,2013-02-13 06:11:00,
2013-02-13 01:21:00,28.0,27.0,29.50,NNW,346,0.0,0.0,94,0.00,,,0.01,,2013-02-13 06:21:00,
2013-02-13 01:32:00,27.0,26.0,29.51,NNW,346,0.0,0.0,94,0.00,,,0.01,,2013-02-13 06:32:00,
2013-02-13 01:42:00,27.0,26.0,29.51,NNW,346,0.0,0.0,94,0.00,,,0.01,,2013-02-13 06:42:00,
2013-02-13 01:51:00,27.0,26.0,29.51,NNW,346,0.0,0.0,94,0.00,,,0.01,,2013-02-13 06:51:00,
2013-02-13 02:02:00,27.0,26.0,29.53,NNW,346,0.0,0.0,95,0.00,,,0.01,,2013-02-13 07:02:00,
2013-02-13 02:11:00,27.0,26.0,29.53,NNW,346,0.0,0.0,95,0.00,,,0.01,,2013-02-13 07:11:00,
2013-02-13 02:22:00,27.0,26.0,29.53,NNW,346,0.0,0.0,95,0.00,,,0.01,,2013-02-13 07:22:00,
2013-02-13 02:32:00,27.0,26.0,29.52,NNW,346,0.0,0.0,95,0.00,,,0.01,,2013-02-13 07:32:00,
2013-02-13 02:42:00,27.0,26.0,29.52,NNW,346,0.0,0.0,95,0.00,,,0.01,,2013-02-13 07:42:00,
2013-02-13 02:51:00,27.0,26.0,29.52,NNW,346,0.0,0.0,95,0.00,,,0.01,,2013-02-13 07:51:00,
2013-02-13 03:01:00,26.0,25.0,29.52,NNW,346,0.0,0.0,96,0.00,,,0.00,,2013-02-13 08:01:00,
2013-02-13 03:11:00,26.0,25.0,29.52,NNW,346,0.0,0.0,96,0.00,,,0.00,,2013-02-13 08:11:00,
2013-02-13 03:21:00,26.0,25.0,29.52,NNW,346,0.0,0.0,96,0.00,,,0.00,,2013-02-13 08:21:00,
2013-02-13 03:32:00,25.0,24.0,29.51,NNW,346,0.0,0.0,96,0.00,,,0.00,,2013-02-13 08:32:00,
2013-02-13 03:43:00,25.0,24.0,29.51,NNW,346,0.0,0.0,96,0.00,,,0.00,,2013-02-13 08:43:00,
2013-02-13 03:52:00,25.0,24.0,29.52,NNW,346,0.0,0.0,97,0.00,,,0.00,,2013-02-13 08:52:00,
2013-02-13 04:02:00,25.0,24.0,29.51,NNW,346,0.0,0.0,97,0.00,,,0.00,,2013-02-13 09:02:00,
2013-02-13 04:11:00,25.0,24.0,29.51,NNW,346,0.0,0.0,97,0.00,,,0.00,,2013-02-13 09:11:00,
2013-02-13 04:21:00,25.0,24.0,29.50,NNW,346,0.0,0.0,97,0.00,,,0.00,,2013-02-13 09:21:00,
2013-02-13 04:32:00,25.0,24.0,29.49,NNW,346,0.0,0.0,97,0.00,,,0.00,,2013-02-13 09:32:00,
2013-02-13 04:42:00,25.0,24.0,29.49,NNW,346,0.0,0.0,97,0.00,,,0.00,,2013-02-13 09:42:00,
2013-02-13 04:52:00,25.0,24.0,29.49,NNW,346,0.0,0.0,97,0.00,,,0.00,,2013-02-13 09:52:00,
2013-02-13 05:01:00,25.0,24.0,29.48,NNW,346,0.0,0.0,97,0.00,,,0.00,,2013-02-13 10:01:00,
2013-02-13 05:11:00,25.0,24.0,29.48,NNW,346,0.0,0.0,97,0.00,,,0.00,,2013-02-13 10:11:00,
2013-02-13 05:21:00,25.0,24.0,29.48,NNW,346,0.0,0.0,97,0.00,,,0.00,,2013-02-13 10:21:00,
2013-02-13 05:32:00,25.0,24.0,29.48,NNW,346,0.0,0.0,96,0.00,,,0.00,,2013-02-13 10:32:00,
2013-02-13 05:42:00,25.0,24.0,29.48,NNW,346,0.0,0.0,96,0.00,,,0.00,,2013-02-13 10:42:00,
2013-02-13 05:51:00,25.0,24.0,29.48,NNW,346,0.0,0.0,96,0.00,,,0.00,,2013-02-13 10:51:00,
2013-02-13 06:01:00,25.0,24.0,29.48,NNW,346,0.0,0.0,96,0.00,,,0.00,,2013-02-13 11:01:00,
2013-02-13 06:11:00,25.0,24.0,29.48,NNW,346,0.0,0.0,96,0.00,,,0.00,,2013-02-13 11:11:00,
2013-02-13 06:22:00,25.0,24.0,29.48,NNW,346,0.0,0.0,96,0.00,,,0.00,,2013-02-13 11:22:00,
2013-02-13 06:32:00,24.0,23.0,29.48,NNW,346,0.0,0.0,97,0.00,,,0.00,,2013-02-13 11:32:00,
2013-02-13 06:42:00,24.0,23.0,29.48,NNW,346,0.0,0.0,96,0.00,,,0.00,,2013-02-13 11:42:00,
2013-02-13 06:52:00,24.0,23.0,29.48,NNW,346,0.0,0.0,96,0.00,,,0.00,,2013-02-13 11:52:00,
2013-02-13 07:02:00,24.0,23.0,29.48,NNW,346,0.0,0.0,96,0.00,,,0.00,,2013-02-13 12:02:00,
2013-02-13 07:11:00,24.0,23.0,29.49,NNW,346,0.0,0.0,96,0.00,,,0.00,,2013-02-13 12:11:00,
2013-02-13 07:22:00,24.0,23.0,29.49,NNW,346,0.0,0.0,96,0.00,,,0.00,,2013-02-13 12:22:00,
2013-02-13 07:32:00,25.0,24.0,29.49,NNW,346,0.0,0.0,95,0.00,,,0.00,,2013-02-13 12:32:00,
2013-02-13 07:42:00,25.0,24.0,29.49,NNW,346,0.0,0.0,95,0.00,,,0.00,,2013-02-13 12:42:00,
2013-02-13 07:52:00,25.0,24.0,29.49,NNW,346,0.0,0.0,95,0.00,,,0.00,,2013-02-13 12:52:00,
2013-02-13 08:02:00,25.0,24.0,29.49,NNW,346,0.0,0.0,95,0.00,,,0.00,,2013-02-13 13:02:00,
2013-02-13 08:11:00,25.0,24.0,29.49,NNW,346,0.0,0.0,95,0.00,,,0.00,,2013-02-13 13:11:00,
2013-02-13 08:21:00,26.0,25.0,29.49,NNW,346,0.0,0.0,94,0.00,,,0.00,,2013-02-13 13:21:00,
2013-02-13 08:32:00,26.0,24.0,29.49,NNW,346,0.0,0.0,93,0.00,,,0.00,,2013-02-13 13:32:00,
2013-02-13 08:42:00,28.0,26.0,29.47,NNW,346,0.0,0.0,91,0.00,,,0.00,,2013-02-13 13:42:00,
2013-02-13 08:52:00,28.0,26.0,29.47,NNW,346,0.0,0.0,91,0.00,,,0.00,,2013-02-13 13:52:00,
2013-02-13 09:01:00,28.0,26.0,29.47,NNW,346,0.0,0.0,91,0.00,,,0.00,,2013-02-13 14:01:00,
2013-02-13 09:11:00,28.0,26.0,29.47,NNW,346,0.0,0.0,91,0.00,,,0.00,,2013-02-13 14:11:00,
2013-02-13 09:21:00,30.0,27.0,29.47,NNW,346,0.0,0.0,88,0.00,,,0.00,,2013-02-13 14:21:00,
2013-02-13 09:32:00,31.0,26.0,29.46,NNW,346,0.0,0.0,81,0.00,,,0.00,,2013-02-13 14:32:00,
2013-02-13 09:42:00,34.0,26.0,29.45,NNW,346,0.0,0.0,72,0.00,,,0.00,,2013-02-13 14:42:00,
2013-02-13 09:52:00,34.0,26.0,29.45,NNW,346,0.0,0.0,72,0.00,,,0.00,,2013-02-13 14:52:00,
2013-02-13 10:01:00,35.0,26.0,29.45,NNW,346,0.0,0.0,69,0.00,,,0.00,,2013-02-13 15:01:00,
2013-02-13 10:11:00,36.0,26.0,29.45,NNW,346,0.0,0.0,66,0.00,,,0.00,,2013-02-13 15:11:00,
2013-02-13 10:21:00,36.0,26.0,29.45,NNW,346,0.0,0.0,66,0.00,,,0.00,,2013-02-13 15:21:00,
2013-02-13 10:32:00,37.0,25.0,29.44,NNW,346,0.0,0.0,62,0.00,,,0.00,,2013-02-13 15:32:00,
2013-02-13 10:42:00,37.0,25.0,29.44,NNW,346,0.0,0.0,62,0.00,,,0.00,,2013-02-13 15:42:00,
2013-02-13 10:52:00,39.0,27.0,29.44,NNW,346,0.0,0.0,61,0.00,,,0.00,,2013-02-13 15:52:00,
2013-02-13 11:01:00,40.0,26.0,29.45,NNW,346,0.0,0.0,58,0.00,,,0.00,,2013-02-13 16:01:00,
2013-02-13 11:11:00,41.0,25.0,29.45,NNW,346,0.0,0.0,53,0.00,,,0.00,,2013-02-13 16:11:00,
2013-02-13 11:21:00,41.0,25.0,29.45,NNW,346,0.0,0.0,53,0.00,,,0.00,,2013-02-13 16:21:00,
2013-02-13 11:32:00,41.0,26.0,29.46,NNW,346,0.0,0.0,55,0.00,,,0.00,,2013-02-13 16:32:00,
2013-02-13 11:42:00,41.0,26.0,29.46,NNW,346,0.0,0.0,55,0.00,,,0.00,,2013-02-13 16:42:00,
2013-02-13 11:51:00,41.0,26.0,29.46,NNW,346,0.0,0.0,55,0.00,,,0.00,,2013-02-13 16:51:00,
2013-02-13 12:01:00,40.0,27.0,29.44,NNW,346,0.0,0.0,59,0.00,,,0.00,,2013-02-13 17:01:00,
2013-02-13 12:11:00,40.0,27.0,29.44,NNW,346,0.0,0.0,59,0.00,,,0.00,,2013-02-13 17:11:00,
2013-02-13 12:21:00,40.0,27.0,29.44,NNW,346,0.0,0.0,59,0.00,,,0.00,,2013-02-13 17:21:00,
2013-02-13 12:32:00,41.0,27.0,29.42,NNW,346,0.0,0.0,56,0.00,,,0.00,,2013-02-13 17:32:00,
2013-02-13 12:42:00,41.0,27.0,29.42,NNW,346,0.0,0.0,56,0.00,,,0.00,,2013-02-13 17:42:00,
2013-02-13 12:52:00,44.0,28.0,29.41,NNW,346,0.0,0.0,52,0.00,,,0.00,,2013-02-13 17:52:00,
2013-02-13 13:02:00,43.0,27.0,29.40,NNW,346,0.0,0.0,53,0.00,,,0.00,,2013-02-13 18:02:00,
2013-02-13 13:11:00,43.0,27.0,29.40,NNW,346,0.0,0.0,53,0.00,,,0.00,,2013-02-13 18:11:00,
2013-02-13 13:23:00,42.0,27.0,29.39,NNW,346,0.0,0.0,54,0.00,,,0.00,,2013-02-13 18:23:00,
2013-02-13 13:32:00,42.0,27.0,29.39,NNW,346,0.0,0.0,54,0.00,,,0.00,,2013-02-13 18:32:00,
2013-02-13 13:42:00,42.0,27.0,29.39,NNW,346,0.0,0.0,54,0.00,,,0.00,,2013-02-13 18:42:00,
2013-02-13 13:52:00,45.0,28.0,29.36,NNW,346,0.0,0.0,51,0.00,,,0.00,,2013-02-13 18:52:00,
2013-02-13 14:01:00,45.0,27.0,29.35,NNW,346,0.0,0.0,50,0.00,,,0.00,,2013-02-13 19:01:00,
2013-02-13 14:11:00,46.0,28.0,29.35,NNW,346,0.0,0.0,49,0.00,,,0.00,,2013-02-13 19:11:00,
2013-02-13 14:21:00,46.0,28.0,29.35,NNW,346,0.0,0.0,49,0.00,,,0.00,,2013-02-13 19:21:00,
2013-02-13 14:32:00,45.0,27.0,29.35,NNW,346,0.0,0.0,50,0.00,,,0.00,,2013-02-13 19:32:00,
2013-02-13 14:42:00,45.0,27.0,29.35,NNW,346,0.0,0.0,50,0.00,,,0.00,,2013-02-13 19:42:00,
2013-02-13 14:51:00,45.0,27.0,29.34,NNW,346,0.0,0.0,49,0.00,,,0.00,,2013-02-13 19:51:00,
2013-02-13 15:02:00,45.0,27.0,29.33,NNW,346,0.0,0.0,50,0.00,,,0.00,,2013-02-13 20:02:00,
2013-02-13 15:11:00,44.0,28.0,29.33,NNW,346,0.0,0.0,52,0.00,,,0.00,,2013-02-13 20:11:00,
2013-02-13 15:21:00,44.0,28.0,29.33,NNW,346,0.0,0.0,52,0.00,,,0.00,,2013-02-13 20:21:00,
2013-02-13 15:32:00,43.0,28.0,29.33,NNW,346,0.0,0.0,54,0.00,,,0.00,,2013-02-13 20:32:00,
2013-02-13 15:42:00,43.0,28.0,29.33,NNW,346,0.0,0.0,54,0.00,,,0.00,,2013-02-13 20:42:00,
2013-02-13 15:52:00,43.0,28.0,29.33,NNW,346,0.0,0.0,54,0.00,,,0.00,,2013-02-13 20:52:00,
2013-02-13 16:01:00,42.0,27.0,29.33,NNW,346,0.0,0.0,54,0.00,,,0.00,,2013-02-13 21:01:00,
2013-02-13 16:11:00,42.0,27.0,29.33,NNW,346,0.0,0.0,54,0.00,,,0.00,,2013-02-13 21:11:00,
2013-02-13 16:21:00,42.0,27.0,29.31,NNW,346,0.0,0.0,55,0.00,,,0.00,,2013-02-13 21:21:00,
2013-02-13 16:31:00,41.0,27.0,29.32,NNW,346,0.0,0.0,56,0.00,,,0.00,,2013-02-13 21:31:00,
2013-02-13 16:42:00,41.0,27.0,29.32,NNW,346,0.0,0.0,56,0.00,,,0.00,,2013-02-13 21:42:00,
2013-02-13 16:52:00,41.0,27.0,29.32,NNW,346,0.0,0.0,57,0.00,,,0.00,,2013-02-13 21:52:00,
2013-02-13 17:02:00,41.0,27.0,29.30,NNW,346,0.0,0.0,58,0.00,,,0.00,,2013-02-13 22:02:00,
2013-02-13 17:11:00,41.0,27.0,29.30,NNW,346,0.0,0.0,58,0.00,,,0.00,,2013-02-13 22:11:00,
2013-02-13 17:21:00,41.0,27.0,29.30,NNW,346,0.0,0.0,58,0.00,,,0.00,,2013-02-13 22:21:00,
2013-02-13 17:32:00,40.0,26.0,29.29,NNW,346,0.0,0.0,58,0.00,,,0.00,,2013-02-13 22:32:00,
2013-02-13 17:42:00,40.0,26.0,29.29,NNW,346,0.0,0.0,58,0.00,,,0.00,,2013-02-13 22:42:00,
2013-02-13 17:51:00,40.0,27.0,29.29,NNW,346,0.0,0.0,59,0.00,,,0.00,,2013-02-13 22:51:00,
2013-02-13 18:01:00,39.0,27.0,29.28,NNW,346,0.0,0.0,63,0.00,,,0.00,,2013-02-13 23:01:00,
2013-02-13 18:11:00,39.0,27.0,29.28,NNW,346,0.0,0.0,63,0.00,,,0.00,,2013-02-13 23:11:00,
2013-02-13 18:21:00,39.0,28.0,29.28,NNW,346,0.0,0.0,64,0.00,,,0.00,,2013-02-13 23:21:00,
2013-02-13 18:32:00,39.0,28.0,29.28,NNW,346,0.0,0.0,65,0.00,,,0.00,,2013-02-13 23:32:00,
2013-02-13 18:42:00,39.0,28.0,29.28,NNW,346,0.0,0.0,65,0.00,,,0.00,,2013-02-13 23:42:00,
2013-02-13 18:52:00,38.0,28.0,29.27,NNW,346,0.0,0.0,67,0.00,,,0.00,,2013-02-13 23:52:00,
2013-02-13 19:02:00,38.0,29.0,29.29,NNW,346,0.0,0.0,69,0.00,,,0.00,,2013-02-14 00:02:00,
2013-02-13 19:11:00,38.0,29.0,29.29,NNW,346,0.0,0.0,69,0.00,,,0.00,,2013-02-14 00:11:00,
2013-02-13 19:22:00,38.0,29.0,29.28,NNW,346,0.0,0.0,69,0.00,,,0.00,,2013-02-14 00:22:00,
2013-02-13 19:32:00,38.0,29.0,29.29,NNW,346,0.0,0.0,70,0.00,,,0.00,,2013-02-14 00:32:00,
2013-02-13 19:42:00,38.0,29.0,29.29,NNW,346,0.0,0.0,70,0.00,,,0.00,,2013-02-14 00:42:00,
2013-02-13 19:51:00,37.0,29.0,29.29,NNW,346,0.0,0.0,73,0.00,,,0.00,,2013-02-14 00:51:00,
2013-02-13 20:01:00,37.0,30.0,29.28,NNW,346,0.0,0.0,76,0.00,,,0.00,,2013-02-14 01:01:00,
2013-02-13 20:11:00,37.0,30.0,29.28,NNW,346,0.0,0.0,76,0.00,,,0.00,,2013-02-14 01:11:00,
2013-02-13 20:21:00,37.0,30.0,29.28,NNW,346,0.0,0.0,76,0.00,,,0.00,,2013-02-14 01:21:00,
2013-02-13 20:32:00,37.0,31.0,29.30,NNW,346,0.0,0.0,79,0.00,,,0.00,,2013-02-14 01:32:00,
2013-02-13 20:41:00,37.0,31.0,29.30,NNW,346,0.0,0.0,79,0.00,,,0.00,,2013-02-14 01:41:00,
2013-02-13 20:51:00,37.0,31.0,29.30,NNW,346,0.0,0.0,79,0.00,,,0.00,,2013-02-14 01:51:00,
2013-02-13 21:02:00,36.0,33.0,29.30,NNW,346,0.0,0.0,89,0.00,,,0.01,,2013-02-14 02:02:00,
2013-02-13 21:11:00,35.0,32.0,29.31,NNW,346,0.0,0.0,90,0.00,,,0.01,,2013-02-14 02:11:00,
2013-02-13 21:21:00,35.0,32.0,29.31,NNW,346,0.0,0.0,90,0.00,,,0.01,,2013-02-14 02:21:00,
2013-02-13 21:32:00,35.0,32.0,29.31,NNW,346,0.0,0.0,90,0.00,,,0.01,,2013-02-14 02:32:00,
2013-02-13 21:42:00,35.0,32.0,29.31,NNW,346,0.0,0.0,90,0.00,,,0.01,,2013-02-14 02:42:00,
2013-02-13 21:51:00,35.0,32.0,29.31,NNW,346,0.0,0.0,90,0.00,,,0.01,,2013-02-14 02:51:00,
2013-02-13 22:02:00,33.0,32.0,29.30,NNW,346,0.0,0.0,95,0.00,,,0.01,,2013-02-14 03:02:00,
2013-02-13 22:12:00,33.0,32.0,29.30,NNW,346,0.0,0.0,96,0.00,,,0.01,,2013-02-14 03:12:00,
2013-02-13 22:22:00,33.0,32.0,29.30,NNW,346,0.0,0.0,96,0.00,,,0.01,,2013-02-14 03:22:00,
2013-02-13 22:32:00,33.0,32.0,29.30,NNW,346,0.0,0.0,97,0.00,,,0.01,,2013-02-14 03:32:00,
2013-02-13 22:42:00,33.0,32.0,29.30,NNW,346,0.0,0.0,97,0.00,,,0.01,,2013-02-14 03:42:00,
2013-02-13 22:51:00,33.0,32.0,29.29,NNW,346,0.0,0.0,97,0.00,,,0.01,,2013-02-14 03:51:00,
2013-02-13 23:01:00,33.0,32.0,29.29,NNW,346,0.0,0.0,97,0.00,,,0.01,,2013-02-14 04:01:00,
2013-02-13 23:12:00,33.0,32.0,29.29,NNW,346,0.0,0.0,98,0.00,,,0.01,,2013-02-14 04:12:00,
2013-02-13 23:21:00,33.0,32.0,29.29,NNW,346,0.0,0.0,98,0.00,,,0.01,,2013-02-14 04:21:00,
2013-02-13 23:32:00,33.0,32.0,29.29,NNW,346,0.0,0.0,98,0.00,,,0.01,,2013-02-14 04:32:00,
2013-02-13 23:42:00,33.0,32.0,29.29,NNW,346,0.0,0.0,98,0.00,,,0.01,,2013-02-14 04:42:00,
2013-02-13 23:51:00,33.0,32.0,29.29,NNW,346,0.0,0.0,98,0.00,,,0.01,,2013-02-14 04:51:00,